Home > Weather > Lugano > Past weeks

Flag for Switzerland Past Weather in Lugano, Switzerland — Yesterday and Last 2 Weeks

Now
75 °F

Scattered clouds.


Feels Like: 77 °F
Forecast: 64 / 82 °F
Wind: 5 mph from South

Location: Lugano Airport

Current Time: Jul 1, 2016 at 12:01:38 PM

Latest Report: Jul 1, 2016 at 11:20 AM


Visibility: N/A

Pressure: 30.09 "Hg

Humidity: 74%

Dew Point: 66 °F

Location of LuganoLocation

Past Weather in Lugano — Graph

°F

Lugano Temperature Yesterday

Maximum temperature yesterday: 84 °F (at 4:50 PM)
Minimum temperature yesterday: 66 °F (at 4:20 AM)
Average temperature yesterday: 74 °F

High & Low Weather Summary for the Past Weeks

 TemperatureHumidityPressure
High91 °F (Jun 23, 5:50 PM)100% (Jun 16, 4:50 PM)30.24 "Hg (Jun 16, 4:50 PM)
Low54 °F (Jun 17, 6:50 AM)25% (Jun 27, 5:50 PM)29.56 "Hg (Jun 16, 9:20 PM)
Average71 °F70%30.02 "Hg
* Reported Jun 16 10:20 AM — Jul 1 10:50 AM, Lugano, Weather by CustomWeather, © 2016

Note: Actual official high and low records may vary slightly from our data, if they occured in-between our weather recording intervals... More about our weather records

Advertising

Lugano Weather History for the Previous 24 Hours

Scroll right to see more
 ConditionsComfort  
Time TempWeatherWind HumidityBarometerVisibility
10:50 AM
Fri, Jul 1
75 °FScattered clouds.5 mph69%30.09 "HgN/A
10:20 AM73 °FScattered clouds.2 mph74%30.09 "HgN/A
9:50 AM72 °FScattered clouds.2 mph78%30.09 "HgN/A
9:20 AM70 °FPartly sunny.2 mph83%30.09 "HgN/A
8:50 AM68 °FPartly sunny.3 mph88%30.09 "Hg6 mi
8:20 AM68 °FPartly sunny.No wind88%30.07 "Hg6 mi
7:50 AM66 °FPartly sunny.No wind100%30.07 "Hg6 mi
7:20 AM64 °FScattered clouds.1 mph100%30.07 "Hg6 mi
6:50 AM64 °FPassing clouds.2 mph94%30.07 "Hg6 mi
6:20 AM63 °FPassing clouds.2 mph100%30.07 "Hg6 mi
5:50 AM63 °FMild.3 mph100%30.07 "Hg4 mi
5:20 AM63 °FMild.2 mph100%30.04 "Hg5 mi
4:50 AM64 °FMild.2 mph94%30.04 "HgN/A
4:20 AM64 °FPassing clouds.3 mph100%30.04 "Hg4 mi
3:50 AM64 °FClear.1 mph100%30.04 "Hg10 mi
3:20 AM64 °FMild.1 mph100%30.04 "Hg5 mi
2:50 AM64 °FFog.1 mph100%30.04 "Hg3 mi
2:20 AM64 °FPassing clouds.2 mph100%30.04 "HgN/A
1:50 AM66 °FPassing clouds.1 mph94%30.04 "HgN/A
1:20 AM66 °FMild.2 mph94%30.04 "Hg4 mi
12:50 AM66 °FClear.1 mph100%30.04 "Hg10 mi
12:20 AM66 °FFog.2 mph100%30.04 "Hg3 mi
11:50 PM
Thu, Jun 30
68 °FPassing clouds.2 mph94%30.04 "Hg6 mi
11:20 PM68 °FMild.1 mph94%30.04 "HgN/A
10:50 PM68 °FLight rain. Passing clouds.2 mph94%30.04 "HgN/A
10:20 PM70 °FLight rain. Partly cloudy.5 mph88%30.04 "HgN/A
9:50 PM70 °FSprinkles. Scattered clouds.3 mph88%30.04 "HgN/A
9:20 PM72 °FSprinkles. Scattered clouds.6 mph83%30.01 "HgN/A
8:50 PM73 °FThunderstorms. Scattered clouds.5 mph74%30.01 "HgN/A
8:20 PM75 °FThunderstorms. Scattered clouds.2 mph69%29.98 "HgN/A
7:50 PM77 °FScattered showers. Scattered clouds.5 mph57%29.98 "HgN/A
7:20 PM77 °FPassing clouds.6 mph61%29.95 "HgN/A
6:50 PM79 °FScattered clouds.7 mph61%29.95 "HgN/A
6:20 PM81 °FPassing clouds.8 mph58%29.95 "HgN/A
5:50 PM84 °FScattered clouds.3 mph48%29.95 "HgN/A
5:20 PM82 °FScattered clouds.3 mph55%29.98 "HgN/A
4:50 PM84 °FScattered clouds.2 mph45%29.98 "HgN/A
4:20 PM82 °FScattered clouds.2 mph55%29.98 "HgN/A
3:50 PM82 °FScattered clouds.5 mph55%29.98 "HgN/A
3:20 PM79 °FLight rain. Scattered clouds.5 mph65%29.98 "HgN/A
2:50 PM81 °FScattered clouds.8 mph54%29.98 "HgN/A
2:20 PM81 °FPassing clouds.9 mph54%29.98 "HgN/A
1:50 PM81 °FPassing clouds.9 mph58%29.98 "HgN/A
1:20 PM81 °FPassing clouds.6 mph58%30.01 "HgN/A
12:50 PM79 °FScattered clouds.6 mph58%30.01 "HgN/A
12:20 PM79 °FScattered clouds.5 mph61%30.01 "HgN/A
Weather by CustomWeather, © 2016

See weather overviewHow to use our weather pages